TimeEST,TemperatureF,Dew PointF,Humidity,Sea Level PressureIn,VisibilityMPH,Wind Direction,Wind SpeedMPH,Gust SpeedMPH,PrecipitationIn,Events,Conditions,WindDirDegrees,DateUTC
12:52 AM,15.1,10.9,84,29.68,8.0,Calm,Calm,-,N/A,,Scattered Clouds,0,2014-01-19 05:52:00
1:52 AM,18.0,15.1,88,29.68,8.0,Calm,Calm,-,N/A,,Overcast,0,2014-01-19 06:52:00
2:52 AM,19.0,15.1,85,29.68,10.0,Calm,Calm,-,N/A,,Overcast,0,2014-01-19 07:52:00
3:52 AM,19.9,16.0,85,29.67,6.0,Calm,Calm,-,N/A,,Overcast,0,2014-01-19 08:52:00
4:52 AM,18.0,15.1,88,29.67,6.0,Calm,Calm,-,N/A,,Overcast,0,2014-01-19 09:52:00
5:52 AM,19.9,17.1,89,29.66,7.0,Calm,Calm,-,N/A,,Overcast,0,2014-01-19 10:52:00
6:27 AM,21.0,18.0,88,29.61,5.0,Calm,Calm,-,0.00,,Overcast,0,2014-01-19 11:27:00
6:52 AM,21.0,18.0,88,29.65,6.0,Calm,Calm,-,0.00,,Overcast,0,2014-01-19 11:52:00
7:52 AM,21.0,19.0,92,29.62,3.0,WSW,3.5,-,0.00,Snow,Light Snow,250,2014-01-19 12:52:00
8:37 AM,23.0,19.9,88,29.54,2.0,Calm,Calm,-,0.00,Snow,Light Snow,0,2014-01-19 13:37:00
8:52 AM,23.0,19.9,88,29.59,3.0,NNW,4.6,-,0.00,Snow,Light Snow,340,2014-01-19 13:52:00
8:55 AM,23.0,19.9,88,29.54,2.5,NNW,4.6,-,0.00,Snow,Light Snow,340,2014-01-19 13:55:00
9:08 AM,23.0,19.9,88,29.53,1.2,Calm,Calm,-,0.00,Snow,Light Snow,0,2014-01-19 14:08:00
9:25 AM,24.1,21.0,88,29.53,0.8,Calm,Calm,-,0.00,Snow,Light Snow,0,2014-01-19 14:25:00
9:52 AM,24.1,21.9,91,29.56,0.8,Calm,Calm,-,0.01,Snow,Light Snow,0,2014-01-19 14:52:00
10:48 AM,26.6,23.0,86,29.48,0.5,NNW,3.5,-,0.02,Fog-Snow,Snow,340,2014-01-19 15:48:00
10:52 AM,26.1,23.0,88,29.52,0.5,Calm,Calm,-,0.02,Fog-Snow,Snow,0,2014-01-19 15:52:00
11:15 AM,27.0,25.0,92,29.45,1.0,Calm,Calm,-,0.01,Snow,Light Snow,0,2014-01-19 16:15:00
11:41 AM,27.0,25.0,92,29.42,1.8,Calm,Calm,-,0.01,Snow,Light Snow,0,2014-01-19 16:41:00
11:48 AM,28.4,24.8,86,29.42,1.8,Calm,Calm,-,0.01,Snow,Light Snow,0,2014-01-19 16:48:00
11:52 AM,28.0,26.1,92,29.47,1.5,Calm,Calm,-,0.01,Snow,Light Snow,0,2014-01-19 16:52:00
12:01 PM,28.0,26.1,92,29.40,1.2,Calm,Calm,-,0.00,Snow,Light Snow,0,2014-01-19 17:01:00
12:25 PM,28.9,25.0,85,29.39,1.2,Calm,Calm,-,0.01,Snow,Light Snow,0,2014-01-19 17:25:00
12:35 PM,28.9,25.0,85,29.38,1.5,North,-9999.0,-,0.01,Snow,Light Snow,0,2014-01-19 17:35:00
12:41 PM,28.9,23.0,78,29.38,3.0,SW,10.4,23.0,0.01,Snow,Light Snow,230,2014-01-19 17:41:00
12:52 PM,28.9,21.9,75,29.42,4.0,SW,9.2,19.6,0.01,Snow,Light Snow,220,2014-01-19 17:52:00
1:52 PM,28.0,21.0,75,29.41,5.0,SW,10.4,18.4,0.00,Snow,Light Snow,230,2014-01-19 18:52:00
2:52 PM,27.0,17.1,66,29.39,9.0,SW,10.4,20.7,0.00,,Mostly Cloudy,230,2014-01-19 19:52:00
3:52 PM,26.1,15.1,63,29.39,10.0,WSW,13.8,24.2,N/A,,Overcast,240,2014-01-19 20:52:00
4:52 PM,25.0,17.1,72,29.41,4.0,SW,10.4,18.4,0.00,Snow,Light Snow,220,2014-01-19 21:52:00
5:52 PM,24.1,16.0,71,29.42,7.0,Variable,5.8,-,0.00,Snow,Light Snow,0,2014-01-19 22:52:00
6:52 PM,24.1,16.0,71,29.42,6.0,SW,8.1,17.3,0.00,Snow,Light Snow,230,2014-01-19 23:52:00
7:52 PM,25.0,16.0,69,29.41,8.0,WSW,9.2,-,0.00,,Overcast,240,2014-01-20 00:52:00
8:52 PM,25.0,16.0,69,29.39,8.0,WSW,8.1,-,0.00,Snow,Light Snow,240,2014-01-20 01:52:00
9:52 PM,26.1,17.1,69,29.39,9.0,SW,11.5,21.9,0.00,,Overcast,230,2014-01-20 02:52:00
10:52 PM,26.1,18.0,71,29.39,5.0,WSW,11.5,19.6,0.00,Snow,Light Snow,250,2014-01-20 03:52:00
11:52 PM,27.0,18.0,69,29.38,10.0,Variable,5.8,-,0.00,,Overcast,0,2014-01-20 04:52:00